Lapse_Rate
6.5 6.5 6.5 6.5 6.5 6.5 6.5 6.5 6.5 6.5 6.5 6.5 6.5 6.5 6.3 6.1 6.0 6.1 6.1 6.1 6.3 6.3 6.3 6.2 5.8 5.4 5.3 4.6 4.2 4.2 3.8 3.6 3.7 3.7 4.1 4.1 4.0 3.9 4.0 4.1 4.6 4.5 5.0 5.1
6.5 6.5 6.5 6.5 6.5 6.5 6.5 6.5 6.5 6.5 6.5 6.5 6.0 4.5 5.9 6.2 6.4 6.4 6.4 6.4 6.3 6.2 6.0 5.9 5.2 5.4 5.9 4.9 4.3 4.1 3.7 4.0 4.3 4.5 4.6 4.4 4.2 4.2 4.3 4.4 4.5 4.8 4.9 5.2
6.5 6.5 6.5 6.5 6.5 6.5 6.5 6.5 6.5 6.5 6.5 6.5 6.5 6.5 6.2 6.0 6.3 6.5 6.4 6.3 6.2 6.2 6.1 6.0 5.4 5.5 4.9 4.4 3.9 3.8 3.9 4.3 4.7 5.1 4.9 4.5 4.4 4.5 4.6 4.8 4.8 4.7 4.9 5.3
6.5 6.5 6.5 6.5 6.5 6.5 6.5 6.5 6.5 6.5 6.5 6.5 6.3 5.3 5.0 5.8 6.1 6.2 6.4 6.3 6.2 6.1 5.4 5.1 4.9 4.8 4.0 4.1 3.6 3.8 4.2 4.9 5.2 4.9 4.6 4.5 4.5 4.7 4.5 4.7 4.7 4.8 5.2 6.0
6.5 6.5 6.5 6.5 6.5 6.5 6.5 6.5 6.5 6.5 6.5 6.3 5.9 5.1 4.9 5.7 6.1 6.0 5.9 6.0 5.6 5.2 5.2 4.3 4.1 4.1 3.7 3.9 3.9 4.4 4.9 4.5 4.4 4.5 4.4 4.5 4.4 4.3 4.3 4.5 4.4 5.1 6.6 6.8
6.5 6.5 6.5 6.5 6.5 6.2 6.5 6.5 6.5 6.5 6.5 6.5 6.1 6.5 6.5 5.3 5.8 6.2 6.2 5.8 5.6 5.3 4.9 3.9 3.8 3.7 3.8 3.8 4.1 4.3 4.0 4.4 4.6 4.7 4.7 4.5 4.5 4.4 4.8 5.1 6.1 6.9 7.7 7.7
6.5 6.5 6.5 6.5 6.5 6.1 6.5 6.5 6.4 6.1 6.2 6.3 6.5 6.0 5.7 5.9 6.0 5.6 5.7 5.5 5.4 5.0 4.4 3.4 3.5 3.6 3.3 3.8 4.0 4.4 4.9 4.9 4.8 4.8 4.9 5.1 5.2 5.2 5.0 5.2 6.2 6.6 7.6 7.2
6.5 6.5 6.5 6.4 6.2 6.5 6.5 5.2 5.8 6.2 6.0 5.7 6.3 6.6 6.4 5.8 5.9 5.7 5.6 6.0 5.7 4.7 3.9 3.3 3.4 3.4 3.8 4.1 4.6 4.6 4.7 4.7 4.8 4.9 5.7 6.4 5.3 5.2 5.7 6.1 6.4 6.9 7.0 7.6
6.5 6.5 6.5 5.9 6.1 5.6 5.5 5.9 6.0 5.5 5.9 6.5 6.5 6.6 6.5 6.1 5.5 5.9 6.1 5.7 5.0 3.9 3.8 3.6 3.8 3.8 3.8 4.2 4.4 4.5 4.4 4.5 4.8 5.2 5.6 6.2 6.4 6.2 6.1 6.6 7.2 8.0 8.3 8.0
6.5 6.5 6.5 6.2 6.0 5.9 5.4 6.3 6.4 6.0 6.5 6.6 6.8 6.9 6.8 6.3 6.0 5.8 5.5 4.9 4.9 4.5 4.2 4.3 4.0 4.0 3.7 4.2 4.7 4.6 4.3 4.4 4.9 5.4 6.6 6.8 6.9 7.3 7.0 6.9 7.6 8.3 7.4 7.0
6.5 6.5 6.5 6.2 6.3 6.5 6.5 6.6 6.7 7.0 7.1 7.2 7.0 7.0 6.6 6.3 5.9 5.3 5.1 5.2 4.7 4.1 3.9 3.9 4.1 4.2 4.5 5.0 4.7 4.5 4.5 4.9 5.7 6.8 6.8 6.6 7.0 7.4 7.8 7.5 8.4 8.4 7.9 8.0
6.5 6.5 6.5 6.5 6.8 7.2 7.0 7.0 7.2 7.1 7.0 7.1 6.5 6.3 5.9 5.9 5.5 4.9 4.6 4.5 3.9 3.7 3.7 4.1 4.4 4.5 4.8 5.1 4.8 4.7 4.8 5.5 6.1 6.8 6.1 6.0 7.0 7.6 8.4 8.7 9.4 9.4 9.4 9.1
6.5 6.8 7.0 7.1 7.3 7.5 7.4 7.3 7.4 7.2 6.9 6.4 5.9 5.3 4.9 5.2 5.0 5.6 4.6 4.1 3.7 3.6 3.8 4.0 4.1 4.5 5.1 5.5 5.4 5.5 5.4 6.4 7.5 8.5 8.3 6.2 6.9 6.4 7.2 7.1 8.0 8.7 9.4 9.4
7.2 7.1 6.4 7.0 7.0 7.4 7.2 7.1 6.4 5.9 5.6 5.5 5.4 5.1 4.9 5.0 5.1 4.3 3.8 4.0 3.8 3.8 3.9 4.3 4.6 5.2 5.9 5.9 5.5 5.9 6.4 8.7 8.1 8.1 7.0 7.0 6.9 7.6 8.1 7.7 7.7 6.3 7.7 9.0
6.5 7.3 7.4 7.3 6.4 5.9 5.7 5.2 5.3 5.5 5.5 5.5 5.4 4.9 4.8 4.7 4.3 4.1 4.0 3.8 4.0 4.2 4.5 4.8 5.0 5.6 6.0 5.9 6.1 6.2 7.1 8.0 7.9 6.7 7.0 8.4 8.2 8.2 8.3 8.3 7.8 7.8 7.1 7.4
6.9 7.8 7.3 6.6 6.3 5.9 5.3 4.9 5.3 5.7 5.2 5.1 4.7 4.7 4.6 4.3 4.1 3.9 3.7 3.8 3.7 4.1 4.6 4.7 5.1 5.8 5.7 6.0 6.6 8.0 8.0 8.5 8.0 7.7 8.0 8.2 8.2 8.4 8.1 7.7 8.1 7.9 7.6 8.0
6.8 6.8 7.7 7.2 6.3 5.5 5.2 5.1 5.0 5.4 5.3 4.7 4.5 4.4 4.2 4.2 4.1 3.8 3.9 3.8 3.8 4.1 4.7 5.4 5.7 5.8 6.1 6.5 8.0 7.8 7.2 6.9 8.7 8.3 8.4 8.4 8.4 7.9 8.0 8.1 8.0 7.5 7.9 8.4
8.4 8.0 6.6 5.5 5.2 5.1 5.4 5.4 5.2 4.6 4.2 4.2 4.2 4.2 3.9 3.8 3.7 3.7 3.6 3.7 3.8 4.1 5.2 5.5 5.8 5.8 6.1 7.4 8.1 6.6 7.0 8.2 8.5 8.3 8.5 8.3 7.1 8.0 7.8 7.8 7.8 7.7 7.9 8.4
5.9 5.5 5.4 5.3 5.1 4.8 4.9 4.6 4.4 4.1 4.1 3.8 3.6 3.1 3.2 3.2 3.4 3.6 3.8 3.8 4.0 4.7 5.6 5.9 7.2 7.9 8.1 8.2 8.0 7.6 8.1 7.9 8.0 8.2 7.9 8.0 7.7 7.7 7.8 7.8 7.7 7.9 8.1 8.2
4.9 4.7 4.6 4.6 4.6 4.1 3.9 3.9 3.6 3.1 3.2 3.3 3.4 3.5 3.7 3.7 3.9 4.1 4.2 4.3 5.0 5.2 6.0 6.4 7.8 8.2 8.2 8.1 7.9 6.0 7.1 7.1 7.3 7.0 6.8 7.2 6.7 7.6 7.6 7.9 8.1 8.0 7.9 7.2
4.9 4.7 4.4 4.1 3.9 3.9 3.6 3.6 3.8 3.5 3.6 3.5 3.8 4.1 4.4 4.7 4.6 4.5 4.4 4.7 6.4 6.4 6.8 7.8 8.2 8.1 7.5 6.5 6.1 6.7 6.6 6.4 6.2 6.0 6.0 5.9 5.8 5.9 6.4 6.9 7.4 7.8 7.0 6.0
4.4 4.2 4.4 4.4 3.9 3.5 3.6 3.6 3.9 4.4 4.3 4.3 4.5 4.5 4.4 4.9 5.3 5.6 5.8 4.8 6.3 8.0 7.5 7.6 8.0 7.9 6.0 6.7 4.9 6.2 6.1 5.9 5.9 6.0 5.5 5.5 5.6 5.9 6.3 6.4 6.4 6.4 5.8 5.0
4.3 4.3 4.1 3.9 3.9 4.3 4.0 3.7 3.7 3.9 3.9 4.0 4.1 4.4 4.7 4.9 5.0 4.4 4.9 7.0 6.9 7.4 6.8 7.9 7.4 7.6 7.2 5.9 6.0 6.0 6.0 5.9 5.8 5.6 5.4 5.7 5.8 5.8 5.8 5.9 6.2 5.9 5.5 5.5
3.5 3.4 3.4 3.7 3.7 3.3 3.1 3.1 3.0 3.7 4.2 5.0 5.3 5.5 5.0 3.8 5.0 6.3 6.6 7.8 7.8 7.7 7.1 6.8 7.4 7.5 6.9 6.3 5.9 5.7 5.9 5.4 5.6 5.5 5.7 6.4 5.5 5.7 5.8 5.9 5.8 6.1 6.0 6.1
3.2 3.1 2.7 2.7 3.3 3.6 4.0 3.5 3.9 4.8 6.5 6.3 6.9 6.7 6.7 6.1 5.3 6.4 6.9 6.8 7.0 6.6 6.2 7.3 7.6 7.0 6.1 6.1 6.2 5.9 5.7 5.7 5.5 6.1 5.7 5.6 5.9 6.0 6.1 6.1 5.7 6.4 6.3 6.4
3.1 3.4 4.0 4.6 5.0 4.2 4.9 5.5 6.2 7.1 6.8 6.0 6.5 6.6 6.3 6.3 6.1 7.0 6.4 6.7 5.7 6.3 5.7 5.9 5.3 5.8 5.7 5.8 6.0 5.9 5.8 5.5 6.0 5.7 5.9 6.0 6.1 6.3 6.1 5.1 5.8 6.1 6.0 5.9
4.6 6.7 5.1 5.6 6.3 6.4 6.7 7.4 6.0 5.1 6.5 6.4 5.2 6.0 6.3 6.5 6.7 6.4 6.8 4.8 5.3 5.3 4.8 5.1 6.3 5.2 5.9 6.2 5.9 5.8 5.8 5.6 5.8 5.5 5.7 6.1 6.3 5.9 4.3 3.4 3.8 5.4 6.0 6.2
Wind_Speed
10 2 6 9 22 19 14 19 9 15 9 14 14 11 15 16 16 17 16 15 14 13 12 11 10 9 9 8 7 7 6 6 5 4 2 1 2 4 5 5 5 6 6 6
3 1 2 4 16 20 26 15 13 5 3 9 15 10 13 17 18 18 16 15 13 13 12 11 9 9 10 8 7 6 6 5 4 3 2 2 3 4 5 6 6 6 6 6
9 6 6 3 12 22 21 13 24 10 5 11 16 16 18 17 17 16 16 14 14 13 12 10 9 9 8 7 7 6 5 4 4 3 2 3 4 5 6 6 5 6 6 6
3 5 2 8 13 16 20 20 17 7 10 17 17 11 11 12 14 16 16 15 13 11 9 9 8 9 8 7 7 6 4 3 2 3 3 4 5 5 5 4 5 5 6 6
6 4 3 2 4 8 12 10 18 14 8 15 18 17 8 11 14 13 13 12 10 12 12 9 9 7 7 7 6 5 3 4 4 4 4 5 5 5 5 5 5 4 7 7
4 6 10 2 3 4 6 5 12 17 18 23 18 8 6 14 17 16 13 13 14 13 11 10 7 7 7 7 6 5 5 4 3 3 4 5 6 5 3 4 7 7 8 8
4 2 1 1 3 1 7 5 4 19 21 22 6 9 17 20 17 15 16 15 13 10 10 7 7 7 7 6 5 4 3 2 3 4 5 5 4 3 4 5 6 6 8 6
3 2 5 3 4 6 2 4 15 16 15 17 22 22 21 20 18 17 16 13 13 11 9 7 7 6 6 5 3 3 2 3 4 5 3 4 5 4 5 5 6 7 5 6
3 3 3 5 5 4 3 10 13 19 19 23 23 22 21 19 17 15 13 12 10 10 9 6 6 6 5 3 4 3 3 4 4 5 5 5 4 5 4 5 5 6 7 7
5 5 6 7 8 11 14 16 16 20 22 23 24 21 19 17 15 12 11 10 9 8 7 6 6 6 5 4 3 4 4 5 5 5 6 4 4 4 4 4 5 7 6 6
5 6 11 9 9 11 16 19 21 20 21 22 23 19 17 15 14 12 10 8 7 7 6 6 6 5 4 3 4 4 4 5 5 4 5 4 4 4 4 3 8 9 7 7
3 9 11 10 11 15 19 18 20 23 21 18 19 18 16 14 12 11 10 7 7 6 6 6 5 4 4 4 4 4 4 4 4 3 4 4 5 4 8 14 17 16 18 13
5 13 19 20 17 17 20 20 19 20 19 20 17 16 16 13 10 14 9 7 7 6 5 5 5 5 4 4 4 3 3 4 3 5 4 4 4 4 6 7 14 14 16 18
21 25 19 17 18 19 20 20 22 19 17 16 15 13 13 11 11 9 8 6 6 6 5 5 5 3 3 4 4 3 3 8 3 4 4 3 3 4 5 5 6 7 10 14
16 20 21 20 20 19 17 18 19 16 14 14 11 12 10 10 9 7 6 6 5 4 5 5 3 3 4 4 3 4 4 3 4 3 3 5 3 4 4 5 5 6 7 10
20 20 21 21 18 17 16 16 16 13 13 11 11 10 9 8 7 6 6 6 4 3 2 2 2 2 4 3 3 3 3 8 7 2 3 3 3 4 4 4 5 5 6 7
21 19 20 17 15 15 14 12 12 10 11 10 8 7 7 6 6 6 5 5 5 3 2 2 2 4 4 4 3 3 3 2 8 3 3 3 3 4 4 4 5 6 6 8
18 15 13 13 12 13 11 10 10 10 8 7 6 6 6 6 5 5 4 4 4 4 3 4 4 4 4 3 2 2 2 2 2 2 2 3 3 3 4 4 5 6 6 7
15 15 14 13 11 11 10 9 8 7 6 6 6 6 6 6 5 4 4 4 3 3 3 4 4 4 3 3 3 3 2 2 3 3 3 5 4 4 4 4 5 6 6 6
14 13 13 13 11 10 9 6 7 7 6 6 5 5 5 5 4 4 3 3 3 1 3 3 3 3 3 2 4 2 3 3 3 3 3 3 4 4 4 7 6 6 5 5
12 11 11 10 10 9 7 6 6 6 5 6 5 5 4 3 3 2 3 2 2 4 2 3 2 2 1 2 2 2 2 3 3 3 3 3 4 4 4 5 5 5 7 4
8 8 8 7 7 7 6 6 6 5 4 4 4 4 3 2 2 1 3 3 2 2 2 2 1 2 2 3 2 2 3 3 2 3 2 3 3 4 4 5 5 5 6 5
8 8 7 6 5 4 5 5 5 5 5 4 3 3 2 1 1 0 1 2 1 3 2 2 5 4 4 3 3 2 3 3 3 3 3 3 3 4 4 5 5 5 6 7
7 6 6 5 6 6 6 5 5 4 4 3 2 2 1 2 3 2 1 2 2 2 2 1 4 5 5 2 2 2 2 2 3 3 3 6 4 4 4 4 5 5 5 8
5 6 6 7 6 4 5 4 4 3 2 3 3 2 2 2 2 1 1 1 2 2 3 5 6 4 2 2 2 1 2 2 2 3 3 4 4 5 5 6 5 6 5 6
6 4 4 4 3 2 2 3 2 2 1 2 2 2 1 1 1 0 1 2 2 3 3 2 1 1 2 2 1 2 2 2 3 2 2 4 4 5 6 5 6 6 6 6
5 7 3 3 3 3 3 2 1 2 3 2 2 3 2 2 2 1 3 3 3 2 2 1 2 3 2 2 2 2 2 3 4 2 2 4 5 5 4 4 4 7 9 9
Wind_Direction
234 252 146 191 194 197 195 210 183 222 209 188 187 163 149 143 141 142 143 141 141 142 139 134 132 125 119 119 120 129 127 123 117 107 90 14 330 313 303 300 294 290 290 292
264 203 102 162 202 201 212 198 223 185 214 165 153 136 146 152 151 148 147 144 140 134 131 129 127 123 119 121 124 122 117 117 108 86 47 350 322 308 305 297 293 290 294 295
219 129 84 354 218 201 218 208 211 198 191 135 148 156 161 153 151 149 146 142 136 132 129 128 118 119 124 121 118 113 106 88 71 47 4 324 318 312 302 296 296 303 306 306
151 110 160 251 170 197 209 211 210 216 157 155 154 136 129 141 143 143 141 136 131 128 114 106 104 101 103 109 113 107 97 87 55 26 350 332 320 306 300 300 306 303 304 295
147 200 259 217 204 168 170 227 206 190 136 115 109 96 90 130 134 131 127 123 113 109 109 104 104 114 120 118 112 110 95 63 35 8 334 312 299 297 301 305 309 308 309 303
158 160 212 145 111 54 82 266 188 166 145 137 134 136 163 126 121 121 117 112 113 111 103 103 111 112 109 103 94 79 64 36 353 317 295 291 288 296 302 323 316 313 309 305
197 177 197 127 201 96 134 238 181 146 148 148 139 135 126 119 113 108 109 108 106 100 109 109 105 104 95 92 86 80 57 331 295 287 287 283 307 319 315 314 311 310 303 300
178 108 246 91 28 162 174 17 112 119 120 102 111 114 115 111 109 108 109 105 104 106 105 99 92 92 94 96 92 68 15 314 305 300 306 324 322 322 322 319 311 301 300 312
116 153 49 13 54 50 26 111 109 111 115 116 114 113 112 111 108 106 109 109 110 113 109 105 105 99 97 80 58 16 353 328 319 326 329 323 338 327 326 309 297 313 318 313
138 31 63 63 43 59 84 99 107 113 119 118 118 116 113 110 112 113 109 107 111 109 110 105 94 82 81 56 25 19 344 335 330 332 321 342 341 315 297 307 316 314 311 302
78 103 82 52 78 93 97 103 104 105 111 115 115 113 116 114 112 110 108 104 98 99 95 91 81 70 59 42 42 6 351 334 329 336 349 343 328 298 304 300 319 316 314 316
168 154 109 109 102 105 104 104 107 110 107 103 107 110 110 107 109 109 108 105 97 92 88 81 77 66 43 39 43 18 345 340 330 359 2 335 309 309 328 321 321 325 326 324
111 107 105 102 96 97 99 99 97 98 100 102 101 104 103 106 106 109 99 92 88 92 89 75 65 50 32 37 43 7 337 320 339 349 318 295 306 317 321 320 322 331 333 335
105 110 95 96 103 96 93 93 91 88 89 95 98 94 100 100 102 94 91 92 88 79 67 61 58 34 15 46 41 350 346 345 350 302 296 306 312 317 316 319 326 326 334 336
80 90 102 105 94 90 90 89 86 86 90 87 87 96 98 101 98 98 93 89 86 84 69 53 48 3 39 43 14 10 348 328 294 293 299 321 320 319 321 320 324 326 323 330
99 96 89 82 84 83 87 90 91 89 89 89 87 82 85 90 94 94 87 81 83 73 45 41 23 11 50 19 2 347 337 319 322 333 316 318 333 323 322 330 334 323 320 331
95 94 97 88 82 79 79 85 94 95 95 93 93 96 97 104 108 100 91 83 78 55 358 8 42 46 20 359 26 338 316 307 337 347 335 333 322 322 327 334 324 320 325 328
92 92 92 96 98 96 88 88 88 87 90 96 98 100 96 90 99 89 79 61 39 12 351 74 59 28 332 344 354 314 317 328 327 318 331 341 321 329 333 322 319 327 327 330
78 80 79 80 84 88 85 82 81 82 79 80 80 79 83 81 72 65 44 26 3 1 45 39 9 338 347 343 355 326 321 341 342 348 1 345 349 339 330 326 336 332 333 332
72 73 74 73 69 75 78 66 76 74 61 69 72 70 67 77 68 43 25 348 296 211 54 339 341 331 310 329 0 323 340 349 359 5 349 6 347 341 341 342 337 326 321 330
74 73 74 75 72 64 60 53 66 69 64 57 56 66 72 58 51 51 5 358 19 85 329 319 290 297 15 44 23 354 9 12 12 12 351 347 351 338 328 328 324 327 322 309
66 67 64 67 74 64 54 54 57 62 71 73 62 53 47 357 337 278 241 202 293 337 312 290 291 103 37 38 48 37 30 21 6 1 8 356 326 318 325 326 323 326 321 317
61 66 63 59 67 87 87 65 53 54 47 40 30 27 29 333 316 14 341 90 41 312 313 323 132 79 64 54 54 50 47 34 18 7 4 340 326 338 328 326 329 324 314 310
55 49 49 40 52 56 49 35 21 17 24 359 323 324 335 323 326 237 219 307 303 323 26 12 123 86 82 61 56 70 46 22 4 357 353 354 337 336 325 325 323 320 307 324
42 51 43 29 42 35 23 20 340 332 357 330 320 311 259 245 185 302 335 342 341 57 70 39 71 75 69 64 46 38 22 349 336 346 346 338 338 341 339 329 320 319 334 314
32 37 36 47 35 6 346 342 306 322 305 338 330 346 321 286 262 298 269 172 83 91 87 78 101 83 52 60 24 4 351 336 333 322 333 329 339 336 323 316 318 311 309 312
26 33 30 13 19 352 310 313 359 322 337 324 293 303 296 278 294 288 128 103 97 97 92 24 64 89 65 46 41 21 354 334 321 290 315 329 338 332 315 306 300 307 311 309